DW9313 Weather Reports


Display with metric or nautical units.
time (UTC)temp
F
wind
direction
speed
MPH
gust
MPH
rain 1hr
in
rain 24hr
in
rain mn
in
humidity
%
barometer
mb
20181212194719 50 150 14.0 22.0 0.00 0.01 0.00 80 1007.1
20181212194220 50 152 16.0 26.0 0.00 0.02 0.00 79 1007.2
20181212193720 50 155 14.0 28.0 0.00 0.02 0.00 80 1007.2
20181212193220 50 145 12.0 26.0 0.00 0.02 0.00 79 1007.3
20181212192720 50 159 17.0 29.0 0.00 0.02 0.00 79 1007.2
20181212192220 50 146 16.0 25.0 0.00 0.02 0.00 80 1007.3
20181212191720 50 152 14.0 22.0 0.00 0.02 0.00 81 1007.3
20181212191220 50 157 14.0 23.0 0.00 0.03 0.00 80 1007.4
20181212190720 50 168 16.0 29.0 0.00 0.03 0.00 80 1007.5
20181212190219 50 156 16.0 29.0 0.00 0.03 0.00 81 1007.6
20181212185720 50 154 14.0 26.0 0.00 0.04 0.00 81 1007.7
20181212185220 50 151 14.0 23.0 0.00 0.06 0.00 80 1007.7
20181212184720 50 151 14.0 28.0 0.00 0.10 0.00 81 1007.8
20181212184220 50 158 14.0 21.0 0.00 0.12 0.00 81 1007.9
20181212183720 50 156 12.0 25.0 0.00 0.14 0.00 81 1008.0
20181212183220 50 141 16.0 26.0 0.00 0.15 0.00 80 1007.9
20181212182720 50 152 16.0 25.0 0.00 0.17 0.00 80 1008.2
20181212182220 50 162 12.0 21.0 0.00 0.18 0.00 81 1008.3
20181212181721 50 147 12.0 20.0 0.00 0.20 0.00 81 1008.3
20181212181220 50 146 13.0 25.0 0.00 0.21 0.00 80 1008.4
20181212180721 50 150 12.0 20.0 0.00 0.22 0.00 80 1008.4
20181212180220 50 149 14.0 22.0 0.00 0.23 0.00 80 1008.4
20181212175720 50 134 13.0 20.0 0.00 0.26 0.00 81 1008.5
20181212175220 50 139 12.0 22.0 0.00 0.28 0.00 81 1008.4
20181212174721 49 146 14.0 22.0 0.00 0.29 0.00 81 1008.4
20181212174221 49 147 12.0 20.0 0.00 0.30 0.00 81 1008.5
20181212173721 49 143 12.0 20.0 0.00 0.30 0.00 81 1008.6
20181212173221 49 142 12.0 20.0 0.00 0.31 0.00 80 1008.9
20181212172721 49 165 12.0 16.0 0.00 0.32 0.00 81 1009.0
20181212172221 49 153 11.0 21.0 0.00 0.33 0.00 81 1009.1
20181212171721 49 151 13.0 20.0 0.00 0.34 0.00 81 1009.1
20181212171221 49 149 10.0 18.0 0.00 0.35 0.00 81 1009.2
20181212170721 49 153 10.0 15.0 0.00 0.36 0.00 81 1009.2
20181212170221 49 153 11.0 16.0 0.00 0.38 0.00 81 1009.2
20181212165721 49 141 12.0 20.0 0.00 0.39 0.00 81 1009.3
20181212165221 49 146 11.0 20.0 0.00 0.40 0.00 82 1009.4
20181212164721 49 128 12.0 21.0 0.00 0.41 0.00 81 1009.4
20181212164221 49 141 12.0 18.0 0.00 0.42 0.00 81 1009.7
20181212163721 49 147 11.0 21.0 0.00 0.43 0.00 82 1009.7
20181212163221 49 147 12.0 18.0 0.00 0.51 0.00 82 1009.7
20181212162721 49 150 9.0 16.0 0.00 0.51 0.00 82 1009.9
20181212162221 49 146 10.0 18.0 0.00 0.51 0.00 82 1010.0
20181212161721 49 156 11.0 18.0 0.00 0.51 0.00 82 1010.0
20181212161221 49 150 13.0 16.0 0.00 0.51 0.00 82 1010.0
20181212160721 49 153 11.0 15.0 0.00 0.51 0.00 83 1010.1
20181212160221 49 141 9.0 15.0 0.00 0.51 0.00 82 1010.0
20181212155721 49 147 10.0 14.0 0.00 0.51 0.00 82 1010.0
20181212155221 49 141 12.0 18.0 0.00 0.51 0.00 82 1010.1
20181212154721 49 160 11.0 16.0 0.00 0.51 0.00 82 1010.2
20181212154222 48 148 10.0 15.0 0.00 0.51 0.00 83 1010.3
20181212153722 48 144 9.0 15.0 0.00 0.51 0.00 83 1010.3
20181212153222 48 147 7.0 14.0 0.00 0.51 0.00 83 1010.4
20181212152722 48 149 12.0 16.0 0.00 0.51 0.00 83 1010.4
20181212152222 48 137 9.0 16.0 0.00 0.51 0.00 83 1010.5
20181212151721 48 141 9.0 14.0 0.00 0.51 0.00 83 1010.6
20181212151222 48 146 9.0 14.0 0.00 0.51 0.00 83 1010.7
20181212150722 48 147 8.0 15.0 0.00 0.51 0.00 83 1010.7
20181212150222 48 145 8.0 16.0 0.00 0.51 0.00 83 1010.8
20181212145721 49 145 10.0 16.0 0.00 0.51 0.00 83 1011.0
20181212145223 49 154 11.0 16.0 0.00 0.51 0.00 83 1011.0
20181212144725 49 152 10.0 14.0 0.00 0.51 0.00 83 1011.1
20181212144221 49 160 10.0 14.0 0.00 0.51 0.00 83 1011.1
20181212143722 49 155 12.0 16.0 0.00 0.51 0.00 83 1011.2
20181212143222 49 153 9.0 18.0 0.00 0.51 0.00 83 1011.3
20181212142722 49 172 11.0 16.0 0.00 0.51 0.00 83 1011.3
20181212142222 49 157 9.0 15.0 0.00 0.51 0.00 83 1011.4
20181212141722 49 159 10.0 18.0 0.00 0.51 0.00 83 1011.4
20181212141222 49 150 11.0 16.0 0.00 0.51 0.00 83 1011.5
20181212140723 49 168 10.0 15.0 0.00 0.51 0.00 83 1011.6
20181212140222 49 171 10.0 16.0 0.00 0.51 0.00 83 1011.7
20181212135722 49 152 10.0 14.0 0.00 0.51 0.00 83 1011.8
20181212135223 49 151 9.0 16.0 0.00 0.51 0.00 83 1011.8
20181212134722 49 146 9.0 14.0 0.00 0.51 0.00 84 1012.0
20181212134223 49 173 9.0 14.0 0.00 0.51 0.00 84 1012.1
20181212133723 49 154 9.0 15.0 0.00 0.51 0.00 84 1012.0
20181212133222 49 154 10.0 15.0 0.00 0.51 0.00 84 1011.9
20181212132723 49 142 9.0 14.0 0.00 0.51 0.00 84 1011.9
20181212132223 49 142 9.0 14.0 0.00 0.51 0.00 85 1012.0
20181212131723 49 152 9.0 14.0 0.00 0.51 0.00 85 1012.1
20181212131223 49 152 7.0 12.0 0.00 0.51 0.00 85 1012.4
20181212130722 49 152 6.0 9.0 0.00 0.51 0.00 85 1012.6
20181212130223 49 158 7.0 12.0 0.00 0.51 0.00 85 1012.7
20181212125723 49 157 7.0 13.0 0.00 0.51 0.00 85 1012.8
20181212125223 49 148 6.0 12.0 0.00 0.51 0.00 85 1012.9
20181212124723 49 171 6.0 12.0 0.00 0.51 0.00 85 1013.1
20181212124222 49 178 6.0 12.0 0.00 0.51 0.00 86 1013.2
20181212123723 49 174 8.0 12.0 0.00 0.51 0.00 86 1013.3
20181212123223 48 174 7.0 12.0 0.00 0.51 0.00 87 1013.3
20181212122723 48 119 6.0 9.0 0.00 0.51 0.00 87 1013.2
20181212122223 48 110 6.0 8.0 0.00 0.51 0.00 87 1013.3
20181212121723 48 100 5.0 8.0 0.00 0.51 0.00 88 1013.5
20181212121224 48 131 6.0 8.0 0.00 0.51 0.00 88 1013.7
20181212120724 47 116 6.0 8.0 0.00 0.51 0.00 88 1013.8
20181212120224 47 112 6.0 8.0 0.00 0.51 0.00 89 1013.8
20181212115723 47 117 2.0 7.0 0.00 0.51 0.00 89 1013.8
20181212115223 47 106 3.0 7.0 0.00 0.51 0.00 89 1013.9
20181212114723 46 119 3.0 7.0 0.00 0.51 0.00 89 1014.0
20181212114223 46 121 3.0 7.0 0.00 0.51 0.00 89 1014.0
20181212113723 46 117 5.0 8.0 0.00 0.51 0.00 89 1014.0
20181212113223 45 113 3.0 6.0 0.00 0.51 0.00 89 1014.1
20181212112723 45 114 3.0 6.0 0.00 0.51 0.00 89 1014.2
20181212112224 45 109 2.0 6.0 0.00 0.51 0.00 89 1014.4
20181212111723 45 91 0.0 2.0 0.00 0.51 0.00 89 1014.4
20181212111224 44 82 0.0 2.0 0.00 0.51 0.00 89 1014.4
20181212110723 44 92 0.0 2.0 0.00 0.51 0.00 89 1014.4
20181212110224 44 117 0.0 0.0 0.00 0.51 0.00 89 1014.5
20181212105723 44 108 0.0 0.0 0.00 0.51 0.00 89 1014.5
20181212105226 44 117 0.0 1.0 0.00 0.51 0.00 89 1014.6
20181212104724 44 132 0.0 0.0 0.00 0.51 0.00 89 1014.7
20181212104223 44 132 0.0 0.0 0.00 0.51 0.00 89 1014.8
20181212103724 43 132 0.0 1.0 0.00 0.51 0.00 89 1014.9
20181212103226 43 132 0.0 1.0 0.00 0.51 0.00 89 1014.9
20181212102725 43 134 0.0 0.0 0.00 0.51 0.00 89 1015.0
20181212102224 43 124 0.0 2.0 0.00 0.51 0.00 89 1014.9
20181212101724 43 82 1.0 2.0 0.00 0.51 0.00 89 1014.9
20181212101224 43 110 0.0 2.0 0.00 0.51 0.00 89 1015.0
20181212100724 44 334 0.0 0.0 0.00 0.51 0.00 89 1014.9
20181212100224 44 323 0.0 0.0 0.00 0.51 0.00 89 1015.0
20181212095725 44 325 0.0 0.0 0.00 0.51 0.00 89 1015.0
20181212095224 43 325 0.0 0.0 0.00 0.51 0.00 89 1015.1
20181212094725 43 325 0.0 0.0 0.00 0.51 0.00 89 1015.1
20181212094224 43 325 0.0 0.0 0.00 0.51 0.00 89 1015.1
20181212093724 43 205 0.0 0.0 0.00 0.51 0.00 89 1015.1
20181212093225 43 84 0.0 0.0 0.00 0.51 0.00 89 1015.1
20181212092725 43 84 0.0 0.0 0.00 0.51 0.00 89 1015.1
20181212092224 43 84 0.0 2.0 0.00 0.51 0.00 89 1015.1
20181212091724 42 84 0.0 0.0 0.00 0.51 0.00 89 1015.1
20181212091225 42 84 0.0 0.0 0.00 0.51 0.00 89 1015.2
20181212090725 42 84 0.0 1.0 0.00 0.51 0.00 89 1015.2
20181212090225 42 84 1.0 2.0 0.00 0.51 0.00 89 1015.2
20181212085724 42 96 2.0 2.0 0.00 0.51 0.00 89 1015.3
20181212085225 42 84 2.0 5.0 0.00 0.51 0.00 89 1015.4
20181212084725 42 261 0.0 2.0 0.00 0.51 0.00 89 1015.5
20181212084224 42 261 0.0 0.0 0.00 0.51 0.00 89 1015.5
20181212083724 42 261 0.0 0.0 0.00 0.51 0.00 89 1015.6
20181212083225 42 261 0.0 0.0 0.00 0.51 0.00 89 1015.6
20181212082727 42 261 0.0 0.0 0.00 0.51 0.00 89 1015.6
20181212082225 43 261 0.0 0.0 0.00 0.51 0.00 89 1015.6
20181212081725 43 261 0.0 0.0 0.00 0.51 0.00 89 1015.6
20181212081225 43 261 0.0 0.0 0.00 0.51 0.00 89 1015.6
20181212080726 42 261 0.0 0.0 0.00 0.51 0.00 89 1015.6
20181212080225 42 271 0.0 2.0 0.00 0.51 0.00 89 1015.6
20181212075725 42 276 0.0 1.0 0.00 0.51 0.00 89 1015.6
20181212075225 42 275 0.0 0.0 0.00 0.51 0.00 89 1015.6
20181212074725 42 274 0.0 0.0 0.00 0.51 0.00 89 1015.7
20181212074225 42 261 0.0 2.0 0.00 0.51 0.00 89 1015.7
20181212073725 42 274 0.0 0.0 0.00 0.51 0.00 89 1015.7
20181212073226 42 272 0.0 0.0 0.00 0.51 0.00 89 1015.7
20181212072726 42 273 0.0 0.0 0.00 0.51 0.00 89 1015.7
20181212072226 42 272 1.0 2.0 0.00 0.51 0.00 89 1015.7
20181212071725 41 264 1.0 5.0 0.00 0.51 0.00 89 1015.7
20181212071226 41 260 0.0 2.0 0.00 0.51 0.00 89 1015.6
20181212070726 41 259 2.0 6.0 0.00 0.51 0.00 89 1015.6
20181212070226 42 65 0.0 0.0 0.00 0.51 0.00 89 1015.5
20181212065726 42 65 0.0 0.0 0.00 0.51 0.00 89 1015.4
20181212065226 42 65 0.0 0.0 0.00 0.51 0.00 89 1015.5
20181212064726 43 65 0.0 0.0 0.00 0.51 0.00 89 1015.4
20181212064226 43 65 0.0 0.0 0.00 0.51 0.00 89 1015.4
20181212063726 43 65 0.0 0.0 0.00 0.51 0.00 88 1015.4
20181212063225 43 65 0.0 0.0 0.00 0.51 0.00 88 1015.4
20181212062727 43 65 0.0 0.0 0.00 0.51 0.00 88 1015.4
20181212062226 43 45 0.0 0.0 0.00 0.51 0.00 88 1015.3
20181212061726 44 45 0.0 0.0 0.00 0.51 0.00 88 1015.4
20181212061226 44 1 0.0 0.0 0.00 0.51 0.00 88 1015.5
20181212060726 44 274 0.0 0.0 0.00 0.51 0.00 88 1015.7
20181212060226 44 283 0.0 0.0 0.00 0.51 0.00 88 1015.8
20181212055726 44 277 0.0 0.0 0.00 0.51 0.00 88 1015.9
20181212055227 45 288 0.0 0.0 0.00 0.51 0.00 88 1015.8
20181212054727 45 264 0.0 0.0 0.00 0.51 0.00 88 1015.8
20181212054227 45 268 0.0 0.0 0.00 0.51 0.00 88 1016.0
20181212053727 45 286 0.0 0.0 0.00 0.51 0.00 88 1016.0
20181212053226 45 278 2.0 5.0 0.00 0.51 0.00 88 1016.0
20181212052730 45 276 1.0 2.0 0.00 0.51 0.00 88 1016.0
20181212052227 45 263 1.0 5.0 0.00 0.51 0.00 88 1016.0
20181212051727 45 293 1.0 2.0 0.00 0.51 0.00 88 1015.9
20181212051227 45 268 0.0 0.0 0.00 0.51 0.00 88 1015.9
20181212050727 45 270 0.0 0.0 0.00 0.51 0.00 88 1015.7
20181212050226 45 278 0.0 0.0 0.00 0.51 0.00 88 1015.7
20181212045727 45 268 1.0 5.0 0.00 0.51 0.00 88 1015.7
20181212045227 45 287 1.0 6.0 0.00 0.51 0.00 88 1015.8
20181212044727 45 283 0.0 2.0 0.00 0.51 0.00 88 1015.8
20181212044227 45 317 2.0 6.0 0.00 0.51 0.00 88 1015.7
20181212043727 45 305 0.0 0.0 0.00 0.51 0.00 88 1015.6
20181212043227 46 316 1.0 2.0 0.00 0.51 0.00 88 1015.6
20181212042727 46 307 4.0 8.0 0.00 0.51 0.00 88 1015.5
20181212042227 46 319 3.0 7.0 0.00 0.51 0.00 88 1015.4
20181212041727 46 296 3.0 7.0 0.00 0.51 0.00 87 1015.5
20181212041227 46 292 3.0 7.0 0.00 0.51 0.00 87 1015.5
20181212040727 46 292 2.0 7.0 0.00 0.51 0.00 87 1015.5
20181212040227 46 318 3.0 6.0 0.00 0.51 0.00 87 1015.4
20181212035728 46 331 2.0 6.0 0.00 0.51 0.00 87 1015.5
20181212035227 46 323 4.0 7.0 0.00 0.51 0.00 87 1015.5
20181212034727 46 311 5.0 9.0 0.00 0.51 0.00 87 1015.6
20181212034228 46 310 5.0 9.0 0.00 0.51 0.00 88 1015.6
20181212033728 46 302 4.0 8.0 0.00 0.51 0.00 88 1015.8
20181212033228 46 289 4.0 7.0 0.00 0.51 0.00 88 1016.0
20181212032728 46 302 3.0 8.0 0.00 0.51 0.00 87 1016.0
20181212032228 46 278 2.0 6.0 0.00 0.51 0.00 87 1016.1
20181212031728 46 280 2.0 8.0 0.00 0.51 0.00 87 1015.9
20181212031227 46 294 5.0 9.0 0.00 0.51 0.00 87 1015.8
20181212030728 46 300 5.0 8.0 0.00 0.51 0.00 87 1015.6
20181212030228 46 303 5.0 8.0 0.00 0.51 0.00 87 1015.5
20181212025727 47 308 5.0 8.0 0.00 0.51 0.00 87 1015.5
20181212025228 47 305 5.0 9.0 0.00 0.51 0.00 87 1015.5
20181212024728 47 304 5.0 12.0 0.00 0.51 0.00 87 1015.4
20181212024228 47 312 5.0 8.0 0.00 0.51 0.00 87 1015.4
20181212023728 47 309 5.0 14.0 0.00 0.51 0.00 87 1015.3
20181212023229 47 306 6.0 13.0 0.00 0.51 0.00 87 1015.4
20181212022728 47 303 6.0 12.0 0.00 0.51 0.00 87 1015.4
20181212022228 47 301 6.0 12.0 0.00 0.51 0.00 87 1015.4
20181212021728 47 308 6.0 12.0 0.00 0.51 0.00 87 1015.2
20181212021228 48 309 7.0 14.0 0.00 0.51 0.00 88 1015.2
20181212020729 48 303 4.0 9.0 0.00 0.51 0.00 88 1015.2
20181212020228 48 294 5.0 8.0 0.00 0.51 0.00 88 1015.2
20181212015729 48 302 6.0 12.0 0.00 0.51 0.00 88 1015.2
20181212015228 48 301 5.0 9.0 0.00 0.51 0.00 88 1015.1
20181212014728 48 301 5.0 9.0 0.00 0.51 0.00 88 1015.2
20181212014228 48 301 3.0 7.0 0.00 0.51 0.00 88 1015.2
20181212013729 48 286 3.0 8.0 0.00 0.51 0.00 88 1015.2
20181212013228 48 279 3.0 7.0 0.00 0.51 0.00 89 1015.2
20181212012729 48 282 3.0 6.0 0.00 0.51 0.00 89 1015.1
20181212012229 48 286 4.0 8.0 0.00 0.51 0.00 89 1015.1
20181212011729 48 286 4.0 8.0 0.00 0.51 0.00 89 1015.1
20181212011229 49 285 3.0 8.0 0.00 0.51 0.00 89 1015.0
20181212010728 49 281 3.0 7.0 0.00 0.51 0.00 89 1015.0
20181212010229 49 284 3.0 6.0 0.00 0.51 0.00 89 1014.8
20181212005728 49 255 1.0 6.0 0.00 0.51 0.00 89 1014.8
20181212005229 49 211 2.0 6.0 0.00 0.51 0.00 89 1014.8
20181212004729 49 264 2.0 6.0 0.00 0.51 0.00 89 1014.7
20181212004229 49 216 3.0 6.0 0.00 0.51 0.00 89 1014.5
20181212003729 49 193 5.0 8.0 0.01 0.51 0.00 89 1014.5
20181212003229 49 173 5.0 8.0 0.01 0.51 0.00 89 1014.4
20181212002729 49 174 4.0 7.0 0.01 0.51 0.00 89 1014.4
20181212002229 49 167 3.0 6.0 0.01 0.51 0.00 89 1014.3
20181212001729 49 136 3.0 6.0 0.01 0.51 0.00 89 1014.1
20181212001229 49 124 5.0 8.0 0.01 0.51 0.00 89 1014.2
20181212000752 49 135 5.0 12.0 0.01 0.51 0.00 89 1014.2
20181212000230 49 127 6.0 12.0 0.01 0.51 0.00 89 1014.1
20181211235730 49 121 6.0 9.0 0.01 0.51 0.51 89 1014.1
20181211235229 49 113 5.0 8.0 0.01 0.51 0.51 89 1014.1
20181211234729 50 115 6.0 9.0 0.01 0.51 0.51 89 1014.0
20181211234229 50 140 8.0 13.0 0.01 0.51 0.51 89 1014.2
20181211233729 50 121 6.0 12.0 0.00 0.50 0.50 89 1014.3
20181211233229 50 146 6.0 9.0 0.00 0.50 0.50 88 1014.4
20181211232730 49 158 6.0 9.0 0.00 0.50 0.50 88 1014.4
20181211232229 49 176 6.0 9.0 0.00 0.50 0.50 88 1014.3
20181211231729 49 162 7.0 12.0 0.00 0.50 0.50 88 1014.2
20181211231230 50 172 6.0 12.0 0.00 0.50 0.50 88 1014.2
20181211230730 50 174 6.0 12.0 0.00 0.50 0.50 88 1014.2
20181211230230 50 196 5.0 8.0 0.00 0.50 0.50 88 1014.2
20181211225729 50 194 6.0 12.0 0.00 0.50 0.50 88 1014.2
20181211225230 50 205 5.0 8.0 0.00 0.50 0.50 88 1014.2
20181211224730 50 210 5.0 10.0 0.00 0.50 0.50 88 1014.2
20181211224230 50 187 6.0 8.0 0.00 0.50 0.50 88 1014.0
20181211223730 49 159 5.0 9.0 0.00 0.50 0.50 88 1014.0
20181211223230 49 146 5.0 8.0 0.00 0.50 0.50 88 1014.0
20181211222730 49 140 6.0 8.0 0.00 0.50 0.50 88 1014.0
20181211222230 50 121 5.0 8.0 0.00 0.50 0.50 88 1013.8
20181211221730 50 128 5.0 8.0 0.00 0.50 0.50 88 1013.8
20181211221230 50 135 5.0 8.0 0.00 0.50 0.50 88 1013.9
20181211220730 50 141 6.0 8.0 0.00 0.50 0.50 88 1014.0
20181211220230 50 138 6.0 8.0 0.00 0.50 0.50 88 1013.9
20181211215730 50 153 5.0 8.0 0.00 0.50 0.50 88 1014.0
20181211215230 50 142 5.0 8.0 0.00 0.50 0.50 88 1013.9
20181211214731 50 132 5.0 8.0 0.00 0.50 0.50 88 1013.8
20181211214230 50 134 5.0 8.0 0.00 0.50 0.50 89 1013.9
20181211213730 50 155 5.0 9.0 0.00 0.50 0.50 89 1014.0
20181211213230 49 152 5.0 8.0 0.00 0.50 0.50 89 1013.9
20181211212730 49 164 5.0 8.0 0.00 0.50 0.50 89 1013.9
20181211212230 49 158 5.0 7.0 0.00 0.50 0.50 89 1013.8
20181211211731 49 158 5.0 7.0 0.00 0.50 0.50 89 1013.8
20181211211230 49 166 5.0 7.0 0.00 0.50 0.50 89 1013.7
20181211210732 49 171 1.0 5.0 0.00 0.50 0.50 88 1013.7
20181211210231 50 137 2.0 6.0 0.00 0.50 0.50 88 1013.6
20181211205731 50 212 1.0 6.0 0.00 0.50 0.50 88 1013.8
20181211205231 50 178 2.0 6.0 0.00 0.50 0.50 88 1013.6
20181211204731 50 273 3.0 12.0 0.00 0.50 0.50 88 1013.7
20181211204231 50 238 5.0 8.0 0.01 0.50 0.50 88 1013.5
20181211203731 50 186 5.0 7.0 0.01 0.50 0.50 88 1013.2
20181211203231 50 162 5.0 8.0 0.01 0.50 0.50 88 1013.2
20181211202731 51 137 2.0 6.0 0.01 0.50 0.50 88 1013.1
20181211202231 51 84 4.0 8.0 0.01 0.50 0.50 88 1012.9
20181211201731 51 113 5.0 8.0 0.01 0.50 0.50 88 1012.9
20181211201231 51 110 6.0 8.0 0.02 0.50 0.50 88 1013.0
20181211200732 51 104 5.0 9.0 0.02 0.50 0.50 88 1013.0
20181211200231 51 115 6.0 9.0 0.02 0.50 0.50 88 1013.1
20181211195731 51 134 6.0 9.0 0.03 0.50 0.50 88 1013.4
20181211195232 51 155 5.0 12.0 0.05 0.50 0.50 88 1013.5